Location: Tom
(33.0437°N, 96.9452°W)
Time: 17:53:27
(UTC-06:00)

N. Korean satellite - Pass Details

Date: 30 December 2018
Orbit: 458 x 509 km, 97.2° (Epoch: 22 January)

Event Time Altitude Azimuth Distance (km) Brightness Sun altitude
Rises 18:08:40 0° 173° (S) 2,470 10.4 -8.1°
Reaches altitude 10° 18:10:41 10° 176° (S) 1,605 9.4 -8.5°
Maximum altitude 18:14:07 68° 260° (W) 506 6.9 -9.1°
Drops below altitude 10° 18:17:37 10° 343° (NNW) 1,638 9.2 -9.8°
Sets 18:19:42 0° 346° (NNW) 2,528 10.1 -10.2°
